Location: White Sands National Monument
(32.8140°N, 106.2665°W)
Time: 22:51:03
(UTC-06:00)

Daily predictions for brighter satellites

Satellite Brightness Start Highest point End
(mag) Time Altitude Azimuth Time Altitude Azimuth Time Altitude Azimuth
Delta 168 4.0 20:32:23 10° SW 20:35:20 25° SSE 20:39:07 10° ESE
Cosmos 1933 4.2 20:33:08 10° NNE 20:36:43 31° E 20:40:17 10° SE
Aurora 2 Rocket 3.9 20:35:17 10° WSW 20:40:23 31° SSW 20:44:10 10° SE
Cosmos 2369 Rocket 3.3 20:36:34 10° SSE 20:40:51 22° E 20:45:08 10° NE
Cosmos 2034 Rocket 4.1 20:38:56 10° N 20:45:03 60° E 20:51:06 10° SSE
Spot 2 Rocket 3.5 20:41:26 10° SSE 20:46:30 77° ENE 20:51:37 10° N
Cosmos 1464 Rocket 4.2 20:46:22 10° N 20:52:43 83° W 20:59:04 10° S
Shenzhou-11 Module 4.5 20:50:58 10° NNW 20:53:03 16° NNE 20:55:07 10° NE
Cosmos 1633 Rocket 4.4 20:49:24 10° SSW 20:53:34 43° W 20:57:47 10° N
NOSS 3-2 (A) 3.7 20:49:25 10° SW 20:55:17 74° WNW 21:01:41 10° NNE
Cosmos 2242 Rocket 3.5 20:52:57 10° N 20:57:26 82° E 21:01:51 10° S
Helios 1B rocket 2.6 21:00:59 10° NNE 21:04:58 49° E 21:08:56 10° S
Resurs 01 Rocket 2.5 21:01:58 10° S 21:06:15 51° W 21:10:34 10° NNW
Hubble Space Telescope 1.9 21:04:51 10° WSW 21:08:28 29° SSW 21:10:54 17° SE
Cosmos 1933 Rocket 3.9 21:07:05 10° SSW 21:11:21 67° W 21:15:42 10° N
YAOGAN 6 3.1 21:10:29 17° SE 21:12:58 42° ENE 21:16:29 10° N
Envisat 3.0 21:08:15 10° SSE 21:13:20 86° WSW 21:18:26 10° NNW
NOSS 3-2 (C) 3.7 21:08:49 10° SW 21:14:41 71° WNW 21:21:05 10° NNE
Meteor 2-3 Rocket 3.7 21:09:36 10° S 21:15:19 69° E 21:20:58 10° NNE
SJ-11-01 4.3 21:10:48 11° SSE 21:15:21 71° ENE 21:20:04 10° N
Milstar 3 3.9 21:05:58 10° SW 21:18:40 46° SSE 21:25:14 14° E
Timation 2 Rocket 4.0 21:12:44 10° NNW 21:19:07 82° ENE 21:24:50 15° SSE
Cosmos 1862 Rocket 3.6 21:15:03 10° N 21:19:33 83° W 21:24:01 10° S
Meteor 1-26 Rocket 4.2 21:14:25 10° N 21:20:03 68° E 21:25:08 13° SSE
Cosmos 990 Rocket 4.2 21:16:20 10° SSW 21:21:29 72° WNW 21:26:42 10° NNE
GPS 2-04 Rocket1 2.9 21:22:04 10° W 21:25:43 58° N 21:28:26 16° ENE
Helios 1A 2.9 21:22:42 18° SSE 21:25:47 75° ENE 21:29:58 10° N
Cosmos 1125 Rocket 4.2 21:22:28 17° SSE 21:25:49 33° E 21:30:27 10° NE
Aureole 3 3.7 21:26:41 28° E 21:26:41 28° E 21:29:20 10° NNE
ARGOS 4.3 21:25:05 19° ESE 21:27:24 26° ENE 21:31:47 10° NNE
ISS -3.2 21:27:36 10° WSW 21:30:47 57° NW 21:34:00 10° NE
Aureole 1 3.9 21:28:13 11° SSW 21:31:01 78° ESE 21:34:08 10° NNE
Meteor 2-10 Rocket 4.4 21:26:13 10° NNW 21:31:55 57° W 21:37:32 10° S
Cosmos 2082 Rocket 3.5 21:28:29 10° NW 21:33:38 37° WSW 21:38:47 10° S
COSMOS 2487 4.1 21:32:47 10° NW 21:35:57 31° WSW 21:38:55 11° SSW
CENTAUR R/B 2.5 21:30:31 10° S 21:36:06 52° ESE 21:42:21 10° NE
Cosmos 1825 3.0 21:37:59 30° E 21:37:59 30° E 21:41:18 10° NNE
Cosmos 1408 3.3 21:40:28 34° E 21:40:30 34° E 21:43:55 10° NNE
OAO 3 Copernicus 4.4 21:36:53 10° SW 21:41:47 54° SSE 21:44:25 26° E
COSMOS 2455 3.0 21:37:23 10° SSW 21:43:22 79° WNW 21:49:24 10° NNE
H-2A R/B 3.3 21:44:20 23° E 21:45:45 26° ENE 21:50:06 10° NNE
Cosmos 1833 Rocket 4.4 21:41:59 10° NW 21:46:46 29° WSW 21:51:31 10° SSW
Cosmos 1892 4.4 21:46:34 10° SW 21:50:05 34° W 21:53:36 10° NNW
SPOT 5 3.8 21:49:16 31° ESE 21:50:52 37° ENE 21:55:45 10° N
Tiangong 2 2.8 21:48:41 10° NW 21:51:29 26° NNE 21:52:13 24° NE
Okean 1-7 3.3 21:47:35 10° N 21:51:53 50° E 21:52:44 43° ESE
Meteor 1-29 4.5 21:52:26 10° N 21:55:41 37° WNW 21:58:55 10° SW
Cosmos 1703 Rocket 3.5 21:51:56 10° N 21:56:21 89° W 21:57:56 39° S
DNEPR-1 R/B 3.8 21:53:40 10° SSW 21:59:20 80° ESE 22:04:04 10° NNE
Cosmos 2344 3.6 21:52:17 10° S 21:59:51 57° ESE 22:07:36 10° NE
Cosmos 1733 Rocket 4.3 22:06:59 26° ENE 22:06:59 26° ENE 22:09:35 10° NNE
MetOp-A 4.0 22:04:04 40° SSE 22:06:05 81° ENE 22:11:27 10° N
OAO 2 Rocket 3.4 22:02:10 10° W 22:07:04 54° SSW 22:07:50 49° S
Lacrosse 5 rocket 2.5 22:04:15 10° WSW 22:07:36 37° NW 22:11:00 10° NNE
Cosmos 2263 4.3 22:01:58 10° SSW 22:07:43 82° WNW 22:13:30 10° NNE
CZ-4B DEB 4.4 22:09:43 24° WSW 22:10:05 25° W 22:12:35 10° NW
Cosmos 1943 Rocket 2.0 22:05:37 16° SSW 22:10:10 82° ESE 22:15:46 10° NNE
Cosmos 1869 Rocket 4.2 22:07:55 20° SSW 22:10:44 51° W 22:14:59 10° N
NOAA 11 4.3 22:10:02 34° S 22:12:29 74° WSW 22:17:58 10° NNW
Cosmos 158 Rocket 4.2 22:13:06 10° N 22:17:47 45° ENE 22:17:54 45° ENE
Cosmos 1340 3.7 22:15:27 10° N 22:18:04 35° NE 22:18:04 35° NE
Cosmos 2221 Rocket 3.8 22:17:52 10° NNW 22:22:15 65° W 22:23:01 54° SW
Cosmos 2369 Rocket 3.5 22:19:17 10° SW 22:24:32 39° WNW 22:29:50 10° N
ERS-1 Rocket 3.6 22:23:22 34° SSW 22:25:11 51° W 22:30:06 10° NNW
Nimbus 7 Rocket 4.2 22:20:34 10° NNE 22:26:27 76° ESE 22:28:04 49° S
Cosmos 1606 3.0 22:22:50 10° N 22:26:04 62° NNW 22:26:04 62° NNW
Shenzhou-11 Module 4.2 22:26:48 10° NW 22:28:25 27° NW 22:28:25 27° NW
Cosmos 1048 Rocket 4.0 22:26:58 10° N 22:32:15 64° ENE 22:32:24 64° E
DMSP B5D2-2 4.0 22:28:30 10° NNE 22:33:27 64° E 22:33:27 64° E
Meteor 1-10 Rocket 4.5 22:30:11 10° NNW 22:36:06 70° W 22:37:43 48° SSW
Meteor 1-27 Rocket 3.6 22:31:34 10° N 22:37:18 68° E 22:37:36 67° ESE
Cosmos 2084 4.0 22:34:04 10° NNW 22:37:00 51° NNW 22:37:00 51° NNW
SPOT 1/Viking Rocket 3.4 22:43:30 85° S 22:43:38 89° W 22:48:51 10° NNW
GEOS 3 Rocket 4.3 22:43:40 39° ENE 22:43:53 39° NE 22:48:42 10° NNW
YAOGAN 11 4.5 22:44:03 62° W 22:44:03 62° W 22:48:26 10° NNW
Cosmos 1092 Rocket 4.0 22:47:18 59° E 22:47:18 59° E 22:53:09 10° NNE
Nadezhda 4 Rocket 3.9 22:48:55 65° S 22:49:57 88° WNW 22:56:09 10° N
Cosmos 1782 4.3 22:47:17 10° NNW 22:50:37 31° W 22:50:37 31° W
VEP-3 4.4 14:33:56 10° SW 22:52:23 53° SSW 22:56:20 42° SSE
USA 215 3.1 22:51:26 63° S 22:52:29 76° SW 22:59:03 10° NW
Lacrosse 4 Rocket 2.7 22:48:57 10° NNW 22:52:03 36° NNE 22:52:03 36° NNE
H-2A R/B 4.0 22:57:24 20° NNE 22:57:24 20° NNE 22:59:04 10° N
ATLAS 5 CENTAUR R/B 2.6 22:53:02 10° NNW 22:59:08 62° ENE 22:59:24 62° ENE
Cosmos 1269 Rocket 4.2 22:58:14 10° NNW 23:03:03 65° WNW 23:03:03 65° WNW
H-2A ROCKET BODY 3.4 23:02:44 10° WSW 23:33:25 - ESE 23:05:18 36° SW
ARGOS 4.4 23:06:36 30° WSW 23:07:27 32° W 23:12:13 10° NW
Landsat 7 4.5 23:08:37 53° NW 23:08:37 53° NW 23:12:21 10° NNW
SL-19 R/B 4.5 23:04:58 10° NNE 23:10:35 74° NE 23:10:35 74° NE
Cosmos 1656 Rocket 3.9 23:13:09 64° NW 23:13:09 64° NW 23:18:19 10° NNE
Terra 2.9 23:24:15 43° NNW 23:24:15 43° NNW 23:27:30 10° NNW
H-2A R/B 3.4 23:24:59 33° W 23:24:59 33° W 23:29:47 10° NNW
Cosmos 2227 Rocket 4.3 23:33:17 10° NNE 23:36:06 16° NE 23:36:06 16° NE
Cosmos 2219 4.1 23:34:34 10° N 23:38:45 42° NNE 23:38:45 42° NNE
Cosmos 1655 Rocket 4.5 23:45:17 53° NNE 23:45:17 53° NNE 23:50:00 10° N
